| time (UTC) | temp C | wind direction | speed KPH | gust KPH | rain 1hr cm | rain 24hr cm | rain mn cm | humidity % | barometer mb |
| 20260902060536 | 22 | 45 | 3.2 | 6.4 | 0.00 | 0.00 | 0.00 | 91 | 1014.3 |
| 20260902055515 | 22 | 68 | 6.4 | 12.9 | 0.00 | 0.00 | 0.00 | 94 | 1014.5 |
| 20260902054516 | 22 | 315 | 1.6 | 4.8 | 0.00 | 0.00 | 0.00 | 96 | 1014.8 |
| 20260902053516 | 22 | 315 | 3.2 | 8.0 | 0.00 | 0.00 | 0.00 | 96 | 1014.7 |
| 20260902052516 | 22 | 68 | 1.6 | 4.8 | 0.00 | 0.00 | 0.00 | 96 | 1014.3 |
| 20260902051516 | 22 | 45 | 1.6 | 6.4 | 0.00 | 0.00 | 0.00 | 96 | 1014.4 |
| 20260902050516 | 23 | 90 | 3.2 | 6.4 | 0.00 | 0.00 | 0.00 | 96 | 1014.3 |
| 20260902045516 | 23 | 68 | 3.2 | 4.8 | 0.00 | 0.00 | 0.00 | 95 | 1014.4 |
| 20260902044516 | 23 | 90 | 4.8 | 8.0 | 0.00 | 0.00 | 0.00 | 95 | 1014.3 |
| 20260902043517 | 23 | 0.0 | 4.8 | 0.00 | 0.00 | 0.00 | 94 | 1014.1 | |
| 20260902042516 | 23 | 0.0 | 0.0 | 0.00 | 0.00 | 0.00 | 93 | 1014.2 | |
| 20260902041516 | 23 | 0.0 | 0.0 | 0.00 | 0.00 | 0.00 | 93 | 1014.0 | |
| 20260902040516 | 23 | 0.0 | 0.0 | 0.00 | 0.00 | 0.00 | 93 | 1013.9 | |
| 20260902035516 | 23 | 0.0 | 3.2 | 0.00 | 0.00 | 0.00 | 93 | 1014.1 | |
| 20260902034516 | 23 | 0.0 | 3.2 | 0.00 | 0.00 | 0.00 | 92 | 1014.3 | |
| 20260902033516 | 24 | 0.0 | 4.8 | 0.00 | 0.00 | 0.00 | 92 | 1014.3 | |
| 20260902032516 | 24 | 0.0 | 0.0 | 0.00 | 0.00 | 0.00 | 91 | 1014.3 | |
| 20260902031516 | 24 | 90 | 3.2 | 4.8 | 0.00 | 0.00 | 0.00 | 90 | 1014.2 |
| 20260902030516 | 24 | 0.0 | 0.0 | 0.00 | 0.00 | 0.00 | 90 | 1014.3 | |
| 20260902025518 | 24 | 0.0 | 0.0 | 0.00 | 0.00 | 0.00 | 90 | 1014.4 | |
| 20260902024516 | 24 | 0.0 | 0.0 | 0.00 | 0.00 | 0.00 | 89 | 1014.5 | |
| 20260902023516 | 24 | 0.0 | 0.0 | 0.00 | 0.00 | 0.00 | 89 | 1014.5 | |
| 20260902022516 | 24 | 0.0 | 0.0 | 0.00 | 0.00 | 0.00 | 89 | 1014.5 | |
| 20260902021516 | 25 | 0.0 | 0.0 | 0.00 | 0.00 | 0.00 | 89 | 1014.4 | |
| 20260902020538 | 25 | 0.0 | 0.0 | 0.00 | 0.00 | 0.00 | 89 | 1014.3 | |
| 20260902015516 | 25 | 0.0 | 1.6 | 0.00 | 0.00 | 0.00 | 89 | 1014.3 | |
| 20260902014516 | 25 | 338 | 3.2 | 6.4 | 0.00 | 0.00 | 0.00 | 89 | 1014.1 |
| 20260902013516 | 25 | 0.0 | 0.0 | 0.00 | 0.00 | 0.00 | 88 | 1014.1 | |
| 20260902012516 | 25 | 338 | 1.6 | 6.4 | 0.00 | 0.00 | 0.00 | 88 | 1013.8 |
| 20260902011516 | 25 | 338 | 4.8 | 9.7 | 0.00 | 0.00 | 0.00 | 88 | 1013.9 |
| 20260902010516 | 25 | 315 | 1.6 | 3.2 | 0.00 | 0.00 | 0.00 | 89 | 1013.6 |
| 20260902005536 | 25 | 225 | 1.6 | 9.7 | 0.00 | 0.00 | 0.00 | 89 | 1013.1 |
| 20260902004516 | 25 | 180 | 4.8 | 9.7 | 0.00 | 0.00 | 0.00 | 88 | 1012.8 |
| 20260902003516 | 25 | 23 | 3.2 | 8.0 | 0.00 | 0.00 | 0.00 | 88 | 1013.0 |
| 20260902002516 | 25 | 158 | 8.0 | 14.5 | 0.00 | 0.00 | 0.00 | 88 | 1012.7 |
| 20260902001536 | 26 | 158 | 4.8 | 6.4 | 0.00 | 0.00 | 0.00 | 85 | 1013.6 |
| 20260902000516 | 26 | 0.0 | 0.0 | 0.00 | 0.00 | 0.00 | 84 | 1014.1 | |
| 20260901235536 | 26 | 158 | 1.6 | 4.8 | 0.00 | 0.00 | 0.00 | 84 | 1014.1 |
| 20260901234516 | 26 | 0.0 | 4.8 | 0.00 | 0.00 | 0.00 | 84 | 1014.5 | |
| 20260901233516 | 26 | 0.0 | 3.2 | 0.00 | 0.00 | 0.00 | 83 | 1014.6 | |
| 20260901232516 | 27 | 270 | 1.6 | 3.2 | 0.00 | 0.00 | 0.00 | 80 | 1014.6 |
| 20260901231516 | 28 | 248 | 1.6 | 4.8 | 0.00 | 0.00 | 0.00 | 78 | 1014.2 |
| 20260901230516 | 28 | 0.0 | 3.2 | 0.00 | 0.00 | 0.00 | 76 | 1013.9 | |
| 20260901225536 | 28 | 0.0 | 1.6 | 0.00 | 0.00 | 0.00 | 76 | 1014.2 | |
| 20260901224516 | 28 | 270 | 3.2 | 6.4 | 0.00 | 0.00 | 0.00 | 74 | 1014.1 |
| 20260901223516 | 29 | 225 | 1.6 | 4.8 | 0.00 | 0.00 | 0.00 | 74 | 1014.1 |
| 20260901222516 | 30 | 248 | 1.6 | 6.4 | 0.00 | 0.00 | 0.00 | 71 | 1014.0 |
| 20260901221516 | 29 | 248 | 1.6 | 6.4 | 0.00 | 0.00 | 0.00 | 72 | 1014.1 |
| 20260901220516 | 30 | 203 | 3.2 | 6.4 | 0.00 | 0.00 | 0.00 | 68 | 1014.2 |
| 20260901215516 | 30 | 203 | 1.6 | 6.4 | 0.00 | 0.00 | 0.00 | 71 | 1014.1 |
| 20260901214516 | 29 | 0.0 | 3.2 | 0.00 | 0.00 | 0.00 | 77 | 1014.2 | |
| 20260901213516 | 29 | 225 | 1.6 | 8.0 | 0.00 | 0.00 | 0.00 | 77 | 1014.0 |
| 20260901212516 | 29 | 225 | 4.8 | 8.0 | 0.00 | 0.00 | 0.00 | 76 | 1014.1 |
| 20260901211516 | 28 | 225 | 3.2 | 8.0 | 0.00 | 0.00 | 0.00 | 76 | 1014.2 |
| 20260901210516 | 28 | 0.0 | 3.2 | 0.00 | 0.00 | 0.00 | 78 | 1014.1 | |
| 20260901205516 | 28 | 0.0 | 0.0 | 0.00 | 0.00 | 0.00 | 76 | 1013.6 | |
| 20260901204516 | 28 | 0.0 | 3.2 | 0.00 | 0.00 | 0.00 | 74 | 1013.7 | |
| 20260901203516 | 28 | 203 | 3.2 | 14.5 | 0.00 | 0.00 | 0.00 | 72 | 1014.5 |
| 20260901202536 | 29 | 248 | 6.4 | 12.9 | 0.00 | 0.00 | 0.00 | 73 | 1015.1 |
| 20260901201515 | 30 | 248 | 4.8 | 12.9 | 0.00 | 0.00 | 0.00 | 70 | 1015.1 |
| 20260901200556 | 30 | 248 | 6.4 | 12.9 | 0.00 | 0.00 | 0.00 | 72 | 1014.9 |
| 20260901195516 | 30 | 225 | 4.8 | 12.9 | 0.00 | 0.00 | 0.00 | 72 | 1014.9 |
| 20260901194515 | 31 | 225 | 4.8 | 12.9 | 0.00 | 0.00 | 0.00 | 70 | 1015.0 |
| 20260901193515 | 31 | 225 | 4.8 | 16.1 | 0.00 | 0.00 | 0.00 | 69 | 1015.1 |
| 20260901192515 | 31 | 225 | 4.8 | 11.3 | 0.00 | 0.00 | 0.00 | 69 | 1015.1 |
| 20260901191516 | 31 | 225 | 4.8 | 11.3 | 0.00 | 0.00 | 0.00 | 71 | 1015.1 |
| 20260901190516 | 31 | 225 | 1.6 | 8.0 | 0.00 | 0.00 | 0.00 | 67 | 1015.0 |
| 20260901185515 | 31 | 225 | 3.2 | 9.7 | 0.00 | 0.00 | 0.00 | 70 | 1015.1 |
| 20260901184516 | 31 | 225 | 1.6 | 4.8 | 0.00 | 0.00 | 0.00 | 69 | 1015.2 |
| 20260901183516 | 30 | 293 | 3.2 | 14.5 | 0.00 | 0.00 | 0.00 | 71 | 1015.1 |
| 20260901182515 | 30 | 248 | 3.2 | 8.0 | 0.00 | 0.00 | 0.00 | 68 | 1015.2 |
| 20260901181516 | 30 | 225 | 4.8 | 9.7 | 0.00 | 0.00 | 0.00 | 70 | 1015.1 |
| 20260901180515 | 30 | 225 | 3.2 | 6.4 | 0.00 | 0.00 | 0.00 | 72 | 1015.0 |
| 20260901175516 | 30 | 203 | 4.8 | 12.9 | 0.00 | 0.00 | 0.00 | 74 | 1015.1 |
| 20260901174515 | 29 | 248 | 3.2 | 11.3 | 0.00 | 0.00 | 0.00 | 80 | 1015.4 |
| 20260901173515 | 29 | 270 | 4.8 | 12.9 | 0.00 | 0.00 | 0.00 | 78 | 1015.3 |
| 20260901172516 | 29 | 225 | 3.2 | 9.7 | 0.00 | 0.00 | 0.00 | 75 | 1015.3 |
| 20260901171515 | 29 | 203 | 1.6 | 6.4 | 0.00 | 0.00 | 0.00 | 81 | 1015.3 |
| 20260901170515 | 28 | 248 | 1.6 | 9.7 | 0.00 | 0.00 | 0.00 | 80 | 1015.3 |
| 20260901165536 | 29 | 0.0 | 4.8 | 0.00 | 0.00 | 0.00 | 79 | 1015.5 | |
| 20260901164515 | 28 | 158 | 1.6 | 6.4 | 0.00 | 0.00 | 0.00 | 80 | 1015.5 |
| 20260901163515 | 28 | 248 | 3.2 | 6.4 | 0.00 | 0.00 | 0.00 | 80 | 1015.4 |
| 20260901162516 | 28 | 0.0 | 3.2 | 0.00 | 0.00 | 0.00 | 81 | 1015.4 | |
| 20260901161515 | 27 | 180 | 1.6 | 4.8 | 0.00 | 0.00 | 0.00 | 84 | 1015.6 |
| 20260901160535 | 27 | 225 | 3.2 | 8.0 | 0.00 | 0.00 | 0.00 | 86 | 1015.6 |
| 20260901155515 | 26 | 293 | 3.2 | 6.4 | 0.00 | 0.00 | 0.00 | 86 | 1015.5 |
| 20260901154515 | 26 | 248 | 1.6 | 6.4 | 0.00 | 0.00 | 0.00 | 92 | 1015.6 |
| 20260901153515 | 25 | 270 | 1.6 | 3.2 | 0.00 | 0.00 | 0.00 | 96 | 1015.5 |
| 20260901152515 | 24 | 293 | 1.6 | 4.8 | 0.00 | 0.00 | 0.00 | 98 | 1015.5 |
| 20260901151515 | 23 | 0.0 | 1.6 | 0.00 | 0.00 | 0.00 | 98 | 1015.2 | |
| 20260901150515 | 23 | 0.0 | 0.0 | 0.00 | 0.00 | 0.00 | 98 | 1015.2 | |
| 20260901145537 | 23 | 203 | 1.6 | 3.2 | 0.00 | 0.00 | 0.00 | 98 | 1015.2 |
| 20260901144515 | 23 | 0.0 | 0.0 | 0.00 | 0.00 | 0.00 | 99 | 1015.2 | |
| 20260901143515 | 23 | 0.0 | 4.8 | 0.00 | 0.00 | 0.00 | 98 | 1015.1 | |
| 20260901142515 | 23 | 0.0 | 0.0 | 0.00 | 0.00 | 0.00 | 98 | 1015.1 | |
| 20260901141515 | 23 | 0.0 | 0.0 | 0.00 | 0.00 | 0.00 | 99 | 1015.2 | |
| 20260901140535 | 22 | 0.0 | 0.0 | 0.00 | 0.00 | 0.00 | 99 | 1015.1 | |
| 20260901135535 | 22 | 0.0 | 0.0 | 0.00 | 0.00 | 0.00 | 99 | 1015.2 | |
| 20260901134555 | 22 | 0.0 | 0.0 | 0.00 | 0.00 | 0.00 | 99 | 1015.3 | |
| 20260901133517 | 21 | 0.0 | 4.8 | 0.00 | 0.00 | 0.00 | 98 | 1015.5 | |
| 20260901132517 | 21 | 248 | 1.6 | 4.8 | 0.00 | 0.00 | 0.00 | 98 | 1015.7 |
| 20260901131517 | 21 | 225 | 1.6 | 6.4 | 0.00 | 0.00 | 0.00 | 98 | 1015.6 |
| 20260901130537 | 21 | 225 | 1.6 | 4.8 | 0.00 | 0.00 | 0.00 | 98 | 1015.7 |
| 20260901125517 | 21 | 0.0 | 0.0 | 0.00 | 0.00 | 0.00 | 98 | 1015.5 | |
| 20260901124517 | 21 | 0.0 | 0.0 | 0.00 | 0.00 | 0.00 | 98 | 1015.3 | |
| 20260901123517 | 21 | 0.0 | 0.0 | 0.00 | 0.00 | 0.00 | 98 | 1015.1 | |
| 20260901122517 | 21 | 0.0 | 0.0 | 0.00 | 0.00 | 0.00 | 98 | 1015.2 | |
| 20260901121517 | 20 | 0.0 | 0.0 | 0.00 | 0.00 | 0.00 | 98 | 1014.9 | |
| 20260901120517 | 20 | 0.0 | 0.0 | 0.00 | 0.00 | 0.00 | 98 | 1014.8 | |
| 20260901115517 | 20 | 0.0 | 0.0 | 0.00 | 0.00 | 0.00 | 98 | 1014.7 | |
| 20260901114537 | 20 | 0.0 | 0.0 | 0.00 | 0.00 | 0.00 | 98 | 1014.6 | |
| 20260901113517 | 20 | 0.0 | 0.0 | 0.00 | 0.00 | 0.00 | 98 | 1014.6 | |
| 20260901112537 | 20 | 0.0 | 0.0 | 0.00 | 0.00 | 0.00 | 97 | 1014.6 | |
| 20260901111517 | 21 | 0.0 | 0.0 | 0.00 | 0.00 | 0.00 | 98 | 1014.6 | |
| 20260901110517 | 21 | 0.0 | 0.0 | 0.00 | 0.00 | 0.00 | 98 | 1014.5 | |
| 20260901105538 | 20 | 0.0 | 0.0 | 0.00 | 0.00 | 0.00 | 98 | 1014.3 | |
| 20260901104517 | 20 | 0.0 | 0.0 | 0.00 | 0.00 | 0.00 | 98 | 1014.2 | |
| 20260901103517 | 20 | 0.0 | 0.0 | 0.00 | 0.00 | 0.00 | 98 | 1014.4 | |
| 20260901102517 | 20 | 0.0 | 3.2 | 0.00 | 0.00 | 0.00 | 97 | 1014.5 | |
| 20260901101517 | 20 | 0.0 | 0.0 | 0.00 | 0.00 | 0.00 | 97 | 1014.5 | |
| 20260901100517 | 21 | 0.0 | 0.0 | 0.00 | 0.00 | 0.00 | 97 | 1014.4 | |
| 20260901095538 | 21 | 0.0 | 0.0 | 0.00 | 0.00 | 0.00 | 97 | 1014.5 | |
| 20260901094517 | 21 | 0.0 | 0.0 | 0.00 | 0.00 | 0.00 | 98 | 1014.4 | |
| 20260901093537 | 21 | 0.0 | 0.0 | 0.00 | 0.00 | 0.00 | 98 | 1014.3 | |
| 20260901092517 | 21 | 0.0 | 0.0 | 0.00 | 0.00 | 0.00 | 98 | 1014.2 | |
| 20260901091517 | 21 | 0.0 | 0.0 | 0.00 | 0.00 | 0.00 | 97 | 1014.3 | |
| 20260901090517 | 21 | 0.0 | 0.0 | 0.00 | 0.00 | 0.00 | 97 | 1014.2 | |
| 20260901085516 | 21 | 0.0 | 0.0 | 0.00 | 0.00 | 0.00 | 97 | 1014.2 | |
| 20260901084517 | 22 | 0.0 | 0.0 | 0.00 | 0.00 | 0.00 | 97 | 1014.2 | |
| 20260901083517 | 22 | 0.0 | 0.0 | 0.00 | 0.00 | 0.00 | 98 | 1014.3 | |
| 20260901082517 | 22 | 0.0 | 0.0 | 0.00 | 0.00 | 0.00 | 97 | 1014.4 | |
| 20260901081517 | 22 | 0.0 | 0.0 | 0.00 | 0.00 | 0.00 | 98 | 1014.3 | |
| 20260901080517 | 22 | 0.0 | 0.0 | 0.00 | 0.00 | 0.00 | 97 | 1014.3 | |
| 20260901075517 | 22 | 0.0 | 0.0 | 0.00 | 0.00 | 0.00 | 98 | 1014.4 | |
| 20260901074516 | 21 | 0.0 | 0.0 | 0.00 | 0.00 | 0.00 | 97 | 1014.7 | |
| 20260901073517 | 22 | 0.0 | 0.0 | 0.00 | 0.00 | 0.00 | 96 | 1014.6 | |
| 20260901072516 | 22 | 0.0 | 0.0 | 0.00 | 0.00 | 0.00 | 97 | 1014.7 | |
| 20260901071616 | 22 | 0.0 | 0.0 | 0.00 | 0.00 | 0.00 | 97 | 1014.6 | |
| 20260901070516 | 22 | 0.0 | 0.0 | 0.00 | 0.00 | 0.00 | 97 | 1014.4 | |
| 20260901065517 | 22 | 0.0 | 0.0 | 0.00 | 0.00 | 0.00 | 97 | 1014.4 | |
| 20260901064517 | 22 | 0.0 | 0.0 | 0.00 | 0.00 | 0.00 | 96 | 1014.5 | |
| 20260901063537 | 22 | 0.0 | 0.0 | 0.00 | 0.00 | 0.00 | 97 | 1014.5 | |
| 20260901062516 | 22 | 0.0 | 0.0 | 0.00 | 0.00 | 0.00 | 97 | 1014.6 | |
| 20260901061536 | 22 | 0.0 | 0.0 | 0.00 | 0.00 | 0.00 | 97 | 1014.4 |